Lake Ouachita Weather Center

Moon Phase Calendar



Lake Ouachita Water Level
Online Cameras

 


      

Current Conditions in Garland
7/24/2021 1:28:09 PM

91°F
Feels Like 100
Clear
Humidity
56%
Pressure
30.03"
Wind
4.4 mph (SW)
Dew Point
74°F
UV Index
10/10 (Very High)
Visibility
6 mi

Hourly Forecast

Date & Time Sat, Jul 24
1:00 PM
Sat, Jul 24
2:00 PM
Sat, Jul 24
3:00 PM
Sat, Jul 24
4:00 PM
Sat, Jul 24
5:00 PM
Sat, Jul 24
6:00 PM
Sat, Jul 24
7:00 PM
Sat, Jul 24
8:00 PM
Sat, Jul 24
9:00 PM
Sat, Jul 24
10:00 PM
Sat, Jul 24
11:00 PM
Sun, Jul 25
12:00 AM
Sun, Jul 25
1:00 AM
Sun, Jul 25
2:00 AM
Sun, Jul 25
3:00 AM
Sun, Jul 25
4:00 AM
Sun, Jul 25
5:00 AM
Sun, Jul 25
6:00 AM
Sun, Jul 25
7:00 AM
Sun, Jul 25
8:00 AM
Sun, Jul 25
9:00 AM
Sun, Jul 25
10:00 AM
Sun, Jul 25
11:00 AM
Sun, Jul 25
12:00 PM
Sun, Jul 25
1:00 PM
Sun, Jul 25
2:00 PM
Sun, Jul 25
3:00 PM
Sun, Jul 25
4:00 PM
Sun, Jul 25
5:00 PM
Sun, Jul 25
6:00 PM
Sun, Jul 25
7:00 PM
Sun, Jul 25
8:00 PM
Sun, Jul 25
9:00 PM
Sun, Jul 25
10:00 PM
Sun, Jul 25
11:00 PM
Mon, Jul 26
12:00 AM
Mon, Jul 26
1:00 AM
Mon, Jul 26
2:00 AM
Mon, Jul 26
3:00 AM
Mon, Jul 26
4:00 AM
Mon, Jul 26
5:00 AM
Mon, Jul 26
6:00 AM
Mon, Jul 26
7:00 AM
Mon, Jul 26
8:00 AM
Mon, Jul 26
9:00 AM
Mon, Jul 26
10:00 AM
Mon, Jul 26
11:00 AM
Mon, Jul 26
12:00 PM
Condition
Clear

Clear

Clear

Clouds

Clouds

Clouds

Clouds

Clouds

Clouds

Clouds

Clouds

Clouds

Clouds

Clear

Rain

Clear

Rain

Rain

Rain

Rain

Clouds

Clouds

Clouds

Clouds

Clouds

Clear

Clouds

Clouds

Clouds

Clouds

Clouds

Clouds

Clouds

Clouds

Clouds

Rain

Rain

Rain

Rain

Rain

Clouds

Clouds

Clouds

Rain

Clouds

Clouds

Clouds

Clouds
Temperature 91°F92°F94°F95°F96°F94°F87°F84°F82°F80°F79°F78°F77°F76°F75°F75°F74°F73°F74°F76°F81°F87°F92°F94°F98°F100°F97°F91°F89°F87°F84°F82°F81°F80°F79°F78°F77°F76°F75°F74°F74°F74°F74°F78°F81°F87°F92°F96°F
Feels Like 101°F101°F101°F101°F100°F98°F92°F89°F86°F83°F79°F79°F78°F77°F76°F76°F76°F74°F75°F78°F85°F92°F96°F99°F103°F105°F102°F99°F96°F93°F89°F86°F85°F80°F79°F79°F78°F77°F77°F76°F76°F75°F76°F79°F87°F94°F100°F104°F
Cloudiness 0%1%8%12%18%29%40%82%70%61%47%38%31%0%2%3%3%4%12%71%43%43%46%48%43%1%41%60%70%70%67%77%86%85%84%79%75%60%59%58%58%59%64%76%83%80%66%54%
Visibility 6 mi6 mi6 mi6 mi6 mi6 mi6 mi6 mi6 mi6 mi6 mi6 mi6 mi6 mi6 mi6 mi6 mi6 mi6 mi6 mi6 mi6 mi6 mi6 mi6 mi6 mi6 mi6 mi6 mi6 mi6 mi6 mi6 mi6 mi6 mi6 mi6 mi6 mi6 mi6 mi6 mi6 mi6 mi6 mi6 mi6 mi6 mi6 mi
Precipitation 76%0%0%0%0%0%0%0%0%0%0%0%0%6%22%31%40%52%69%70%49%37%25%17%15%0%0%0%0%0%0%17%7%6%4%32%41%32%34%35%34%34%34%39%13%9%9%9%
Humidity 58%54%49%43%38%43%56%62%65%70%74%77%79%81%85%86%87%93%93%90%79%58%47%43%38%35%38%54%55%60%67%69%69%72%74%78%84%91%92%93%91%91%91%87%77%61%52%45%
Dew Point 74°F73°F72°F69°F66°F67°F69°F69°F69°F69°F69°F69°F69°F69°F70°F70°F70°F70°F71°F73°F73°F70°F68°F68°F68°F68°F67°F72°F71°F70°F71°F70°F70°F69°F70°F70°F71°F72°F72°F71°F71°F71°F71°F73°F73°F72°F72°F71°F
Pressure 30.03"30.03"30"29.97"29.94"29.91"29.91"29.94"29.94"29.97"29.97"29.97"29.97"29.97"29.97"29.97"29.97"29.97"30"30"30.03"30"30"29.97"29.94"29.94"29.91"29.91"29.91"29.88"29.88"29.88"29.91"29.94"29.94"29.94"29.97"29.97"29.94"29.91"29.91"29.94"29.97"29.97"30"29.97"29.97"29.97"
Wind Speed 4.4 mph4 mph3.4 mph2.7 mph2.7 mph2.2 mph1.4 mph1.3 mph1.6 mph1.9 mph2.1 mph2.3 mph2.5 mph1.9 mph2.4 mph2.6 mph3.1 mph3.2 mph2.3 mph2.7 mph3.6 mph4.6 mph4.5 mph3 mph1.8 mph1 mph1.4 mph2.4 mph2.2 mph3.6 mph1.6 mph1.6 mph2.2 mph3.2 mph2.6 mph2.2 mph2.5 mph5 mph4.7 mph2.6 mph1.9 mph2 mph0.6 mph0.9 mph1.2 mph0.9 mph1.8 mph1.6 mph
Wind
Direction
223°
SW
219°
SW
212°
SSW
213°
SSW
226°
SW
229°
SW
212°
SSW
164°
SSE
151°
SSE
173°
S
196°
SSW
206°
SSW
211°
SSW
207°
SSW
205°
SSW
231°
SW
247°
WSW
248°
WSW
244°
WSW
262°
W
260°
W
266°
W
270°
W
278°
W
270°
W
220°
SW
167°
SSE
144°
SE
134°
SE
94°
E
61°
ENE
112°
ESE
76°
ENE
99°
E
158°
SSE
132°
SE
153°
SSE
168°
SSE
170°
S
184°
S
265°
W
286°
WNW
282°
WNW
175°
S
148°
SSE
190°
S
211°
SSW
184°
S

Daily Forecast

Date High Low Precip. Humidity
Today
Jul 24

Rain
96 °F
72 °F
76%
56%
Sunday
Jul 25

Rain
100 °F
73 °F
70%
38%
Monday
Jul 26

Rain
98 °F
74 °F
88%
41%
Tuesday
Jul 27

Rain
99 °F
74 °F
81%
43%
Wednesday
Jul 28

Rain
97 °F
74 °F
85%
43%
Thursday
Jul 29

Clear
101 °F
75 °F
0%
39%
Friday
Jul 30

Rain
101 °F
77 °F
24%
35%
Saturday
Jul 31

Clear
101 °F
76 °F
0%
37%
Sunday
Aug 1

Clouds
102 °F
77 °F
4%
35%
Monday
Aug 2

Rain
102 °F
77 °F
31%
36%
Tuesday
Aug 3

Clear
101 °F
75 °F
23%
34%
Wednesday
Aug 4

Rain
98 °F
76 °F
30%
41%
Thursday
Aug 5

Clouds
94 °F
75 °F
4%
45%
Friday
Aug 6

Clouds
98 °F
76 °F
0%
42%
Saturday
Aug 7

Clouds
99 °F
74 °F
0%
38%
Sunday
Aug 8

Clear
100 °F
74 °F
0%
35%

Temperature 8-14 Day Outlook



Precipitation 8-14 Day Outlook




Quick Links
Lake Ouachita News
Lake Ouachita Photos
Lake Ouachita Videos




About Us
Contact Us
Site Map
Search Site
Advertise With Us
   
Ouachita.USLakes.info
THE LAKE OUACHITA WEBSITE

Copyright 2021, Lakes Online
Privacy    |    Legal